Probability
79 65 47 35 30 34 39 40 36 27 20 17 17 12 5 1 1 0 0 0 0 0 0 0 0 0 0 1 1 1 0 1 1 1 0 0 0 0 0 0 0 0 0
82 73 58 45 44 51 57 57 49 39 30 24 19 14 10 7 4 2 1 1 0 0 0 0 0 0 1 3 4 4 3 2 2 1 0 0 0 0 0 0 0 0 0
76 75 66 57 60 71 76 72 62 52 45 39 32 26 25 22 14 7 4 2 1 1 0 0 1 1 2 6 11 14 16 14 9 3 0 0 0 0 0 0 0 0 0
67 67 65 63 70 82 88 82 74 68 63 58 53 47 46 41 27 15 8 4 2 2 1 2 4 5 6 10 16 25 32 33 26 15 5 1 0 0 0 0 0 0 0
58 61 64 67 75 87 93 90 87 83 78 72 66 61 59 53 39 23 12 6 3 2 2 5 7 8 9 16 25 34 40 45 42 30 15 6 1 0 0 0 0 0 0
42 49 56 63 73 81 85 86 85 85 84 79 70 61 57 51 42 29 16 8 3 2 3 6 9 11 15 23 33 40 45 50 50 39 26 15 5 1 0 0 0 0 0
22 27 35 45 56 62 66 70 73 76 80 79 70 56 43 33 29 25 19 11 5 3 4 5 7 12 21 28 33 40 50 59 54 40 29 18 8 1 0 0 0 0 0
7 10 15 24 34 40 45 51 57 64 69 69 63 48 29 16 12 12 14 11 6 4 3 2 5 10 18 28 29 31 46 60 55 39 23 13 5 1 0 0 0 0 0
1 2 5 10 18 24 29 33 42 53 60 60 55 43 25 12 5 3 5 6 5 3 1 1 2 4 9 17 19 19 29 42 45 36 22 9 2 0 0 0 0 0 0
0 0 1 3 8 12 15 19 28 43 54 56 50 39 26 14 6 1 1 2 2 1 0 0 1 1 3 6 7 7 10 17 24 26 20 8 2 0 0 0 0 0 0
0 0 0 0 2 5 7 9 13 25 40 45 41 31 21 13 7 2 1 1 1 0 0 0 0 0 1 2 2 1 1 3 6 10 9 5 2 1 1 1 1 0 0
0 0 0 0 0 2 3 3 3 9 19 25 23 18 13 8 5 3 1 0 0 0 0 0 0 0 0 1 1 0 0 0 0 1 1 1 1 1 1 1 0 0 0
0 0 0 0 0 0 0 0 0 2 5 7 7 6 5 4 3 2 1 0 0 0 0 0 0 0 0 0 0 0 0 0 0 0 0 0 0 1 1 0 0 0 0
0 0 0 0 0 0 0 0 0 0 1 1 0 1 1 1 1 1 1 0 0 0 0 0 0 0 0 0 0 0 0 0 0 0 0 0 0 0 0 0 0 0 0
0 0 0 0 0 0 0 0 0 0 0 0 0 0 0 0 0 0 0 0 0 0 0 0 0 0 0 0 0 0 0 0 0 0 0 0 0 0 0 0 0 0 0
0 0 0 0 0 0 0 0 0 0 0 0 0 0 0 0 0 0 0 0 0 0 0 0 0 0 0 0 0 0 0 0 0 0 0 0 0 0 0 0 0 0 0
0 0 0 0 0 0 0 0 0 0 0 0 0 0 0 0 0 0 0 0 0 0 0 0 0 0 0 0 0 0 0 0 0 0 0 0 0 0 0 0 0 0 0
0 0 0 0 0 0 0 0 0 0 0 0 0 0 0 0 0 0 0 0 0 0 0 0 0 0 0 0 0 0 0 0 0 0 0 0 0 0 0 0 0 0 0
0 0 0 0 0 0 0 0 0 0 0 0 0 0 0 0 0 0 0 0 0 0 0 0 0 0 0 0 0 0 0 0 0 0 0 0 0 0 0 0 0 0 0
0 0 0 0 0 0 0 0 0 0 0 0 0 0 0 0 0 0 0 0 0 0 0 0 0 0 0 0 0 0 0 0 0 0 0 0 0 0 0 0 0 0 0
0 0 0 0 0 0 0 0 0 0 0 0 0 0 0 0 0 0 0 0 0 0 0 0 0 0 0 0 0 0 0 0 0 0 0 0 0 0 0 0 0 0 0
0 0 0 0 0 0 0 0 0 0 0 0 0 0 0 0 0 0 0 0 0 0 0 0 0 0 0 0 0 0 0 0 0 0 0 0 0 0 0 0 0 0 0
0 0 0 0 0 0 0 0 0 0 0 0 0 0 0 0 0 0 0 0 0 0 0 0 0 0 0 0 0 0 0 0 0 0 0 0 0 0 0 0 0 0 0
0 0 0 0 0 0 0 0 0 0 0 0 0 0 0 0 0 0 0 0 0 0 0 0 0 0 0 0 0 0 0 0 0 0 0 0 0 0 0 0 0 0 0
0 0 0 0 0 0 0 0 0 0 0 0 0 0 0 0 0 0 0 0 0 0 0 0 0 0 0 0 0 0 0 0 0 0 0 0 0 0 0 0 0 0 0
0 0 0 0 0 0 0 0 0 0 0 0 0 0 0 0 0 0 0 0 0 0 0 0 0 0 0 0 0 0 0 0 0 0 0 0 0 0 0 0 0 0 0
Wind_Speed
6 7 6 6 7 6 7 7 7 8 8 9 9 9 10 10 9 8 6 14 16 16 16 16 15 15 15 15 15 16 16 18 18 17 18 19 19 19 19 19 19 18 18
7 7 7 7 7 7 7 8 8 7 7 7 8 9 9 9 8 9 8 10 15 15 16 17 17 16 15 15 15 15 15 16 17 17 18 18 18 18 18 17 18 18 18
9 8 7 8 7 7 8 7 8 7 7 7 8 9 7 8 8 9 9 7 8 12 15 17 17 17 17 17 17 16 16 16 16 17 18 18 18 17 17 16 16 16 17
9 8 8 8 8 7 6 7 7 6 7 7 7 6 6 7 9 9 8 8 7 8 11 15 17 17 17 18 18 17 17 16 17 18 18 19 19 18 17 17 16 16 16
7 6 6 7 6 6 6 7 6 6 7 7 7 6 7 7 8 9 9 10 9 9 8 10 15 16 18 19 18 18 17 17 17 19 20 20 20 19 18 18 17 16 16
5 5 5 6 6 5 6 6 7 7 6 6 7 7 7 7 7 8 10 8 8 10 10 10 9 10 16 17 18 18 18 18 17 18 19 21 21 20 19 18 18 18 17
5 5 5 5 5 5 7 7 6 7 6 4 4 5 6 8 9 8 7 7 9 9 9 9 8 7 7 13 15 17 18 19 18 18 18 19 20 20 20 19 18 18 18
5 5 5 5 6 6 7 7 6 4 4 4 4 3 3 3 5 7 6 6 7 5 6 8 7 8 8 6 8 13 15 16 18 18 18 17 17 18 19 19 19 19 19
6 6 7 7 7 6 7 7 7 8 6 5 6 5 4 5 2 2 4 4 4 4 4 5 6 6 6 6 7 9 12 11 12 15 16 16 16 16 18 19 20 20 20
7 7 7 7 7 7 8 8 7 7 7 6 5 6 6 4 4 3 2 3 3 4 4 4 4 4 4 4 4 4 4 4 4 5 8 10 12 14 16 19 20 20 20
7 8 8 7 8 7 8 8 8 8 7 7 6 5 6 6 6 5 4 2 2 2 2 3 3 2 2 1 0 2 3 3 3 3 3 3 5 8 13 17 20 21 21
6 7 8 7 7 7 8 8 8 9 8 8 7 6 5 4 5 5 6 3 2 0 1 2 1 1 1 1 3 6 6 5 5 4 4 3 3 3 5 11 17 19 20
5 8 8 7 7 7 7 7 7 8 8 8 7 6 6 5 3 4 4 3 2 1 1 2 3 2 2 3 3 6 6 6 6 6 6 6 7 7 7 4 1 6 11
6 8 8 8 8 7 6 6 5 6 6 7 7 6 4 4 4 4 4 4 3 2 2 2 2 3 3 3 5 5 4 6 6 6 7 8 9 10 11 11 11 9 7
5 7 8 7 7 7 6 5 4 5 5 6 6 6 4 4 4 4 3 3 4 3 2 2 1 3 3 3 5 4 5 8 7 7 8 9 9 10 11 11 11 11 10
5 7 7 7 7 7 6 5 4 5 5 4 4 5 5 3 3 3 3 3 2 3 3 2 2 2 3 4 7 6 7 10 11 9 9 9 10 10 10 10 10 9 9
5 6 7 7 7 7 6 4 4 3 3 3 3 4 4 4 3 2 3 3 2 3 6 3 2 2 4 5 5 6 7 7 8 12 11 11 11 11 11 11 10 9 9
4 5 5 6 7 7 6 4 3 1 1 2 2 3 3 3 3 3 3 4 4 4 7 6 3 3 5 4 5 7 6 7 7 12 13 13 12 12 12 11 11 10 9
4 4 4 5 6 5 4 4 3 3 4 4 4 4 4 5 5 4 6 6 6 6 5 7 4 3 4 4 5 6 7 6 6 8 10 11 12 12 12 11 11 10 9
3 3 3 3 3 3 4 4 5 5 6 7 6 5 5 5 5 7 7 8 8 8 7 7 6 4 4 3 4 4 5 5 6 6 6 7 9 11 12 11 12 11 10
4 3 2 1 2 2 3 4 5 6 7 8 7 6 6 8 9 7 7 8 8 7 7 7 6 5 4 4 4 2 3 3 5 6 4 5 5 6 7 10 12 13 11
4 3 1 1 2 2 5 6 6 6 7 7 7 7 8 10 14 14 13 10 8 8 8 6 5 5 4 3 3 3 3 4 4 5 4 4 5 6 6 7 11 12 13
6 5 3 3 4 5 7 7 8 6 6 5 5 6 7 8 9 9 12 13 11 9 8 7 7 5 3 2 3 4 4 4 3 4 2 4 4 5 5 6 11 12 13
7 6 5 6 6 6 8 8 9 7 7 6 5 6 7 5 5 8 9 9 8 7 5 5 6 4 3 2 2 3 3 3 3 3 4 3 4 3 3 4 10 12 12
8 7 7 8 8 8 10 10 9 6 6 6 5 5 6 6 7 10 11 10 9 8 9 11 10 9 9 7 4 4 4 5 4 4 5 3 3 2 2 3 5 10 11
9 9 8 8 10 9 12 13 10 6 7 5 5 5 6 7 8 9 9 10 10 6 6 8 8 9 9 10 10 5 4 3 2 3 4 3 3 2 2 2 3 5 7
Wind_Direction
239 242 245 245 245 245 249 252 251 252 251 248 244 243 246 246 247 247 254 260 264 265 266 266 263 263 261 253 246 240 231 226 223 221 223 226 227 226 228 226 220 217 216
236 240 243 243 242 241 243 245 247 250 254 251 250 246 245 245 245 246 249 258 262 264 265 266 265 261 256 249 245 242 235 228 224 223 223 226 228 228 228 228 225 221 218
240 241 244 247 245 242 243 246 248 245 249 248 250 251 252 251 247 246 249 250 255 258 258 259 260 257 251 245 242 240 237 230 226 224 224 226 227 227 226 225 224 221 218
243 245 247 250 248 243 243 245 246 242 241 240 242 243 243 245 247 246 248 250 250 255 257 256 255 252 250 247 244 241 237 233 227 225 225 226 227 226 224 222 221 219 215
249 243 249 256 255 251 248 249 245 235 240 238 237 240 238 239 243 248 246 248 249 250 254 256 253 252 252 252 248 244 240 237 231 227 226 227 228 226 224 222 221 218 213
267 260 260 264 262 258 257 249 250 241 239 240 247 248 236 233 232 238 244 247 250 254 255 255 253 253 251 251 249 245 242 238 236 233 228 227 227 225 222 221 219 217 212
282 276 272 272 265 258 257 255 251 250 247 232 238 254 248 235 235 235 236 242 250 255 257 256 253 250 250 246 246 247 245 240 238 236 232 228 225 223 221 219 217 214 212
286 287 274 271 268 264 262 256 245 244 243 209 211 232 266 270 237 232 229 232 241 247 254 259 257 251 248 243 239 240 245 243 240 236 234 230 226 221 219 217 215 213 212
289 281 276 271 269 262 260 255 243 240 246 232 206 205 215 233 258 258 236 232 231 235 250 261 261 255 250 242 238 235 240 244 245 240 235 233 229 223 218 216 214 212 212
293 289 282 276 271 264 259 256 247 236 238 242 224 217 220 207 213 249 248 237 237 243 255 268 269 262 257 248 239 231 236 245 260 261 252 244 238 228 219 217 216 213 212
297 295 292 285 278 270 262 256 252 241 234 236 227 216 224 226 223 224 243 234 235 249 274 284 275 268 271 261 226 74 73 56 43 8 341 309 276 247 227 220 220 216 213
300 299 301 294 287 278 269 262 254 247 240 238 234 221 212 208 207 211 222 223 220 240 18 4 354 12 42 38 69 78 75 72 68 56 42 24 5 327 257 230 226 222 219
305 306 308 302 295 284 275 267 257 250 241 237 233 226 219 214 194 190 197 197 190 166 97 42 25 37 55 52 52 65 73 79 78 74 68 61 57 54 48 41 257 231 227
293 299 304 302 298 293 283 270 261 253 242 235 229 221 215 209 199 190 181 169 166 159 122 93 33 30 37 46 52 59 60 66 84 84 78 72 66 62 60 58 58 55 57
295 307 310 308 306 302 293 278 261 254 243 232 222 214 208 203 198 194 181 171 163 160 144 116 77 23 30 51 46 62 64 61 74 82 81 78 73 68 63 61 60 58 56
300 316 321 318 313 309 304 290 272 258 241 227 212 201 195 185 181 178 175 168 156 141 122 87 76 41 39 68 57 62 64 64 63 75 78 78 75 71 65 61 58 55 52
298 313 318 319 318 318 316 307 285 263 235 215 197 187 178 169 162 158 149 136 125 119 117 94 53 42 54 65 59 61 65 66 65 66 73 76 74 70 67 62 56 51 45
289 303 314 319 322 327 330 330 333 357 117 116 125 134 139 129 117 113 111 106 102 107 123 120 79 57 60 59 65 61 55 62 67 63 67 72 73 70 67 63 57 49 41
282 301 314 322 325 335 351 8 28 53 80 82 80 83 88 99 101 101 102 103 103 103 101 110 98 73 70 54 64 63 60 52 57 60 62 63 66 68 67 62 56 48 39
260 287 303 316 335 9 29 40 58 63 69 70 67 69 73 88 106 110 109 109 110 105 100 101 95 79 68 51 65 65 65 49 44 37 46 49 54 59 56 51 44 38 29
231 250 280 325 24 49 68 77 79 82 79 78 70 66 79 100 102 105 116 118 116 110 104 100 94 84 66 58 58 46 69 61 54 30 36 40 43 49 46 39 35 28 22
213 210 212 144 100 103 113 103 100 92 89 91 88 80 82 86 90 89 91 96 111 119 116 107 100 96 84 73 69 63 63 57 42 11 25 40 41 51 42 39 28 28 22
196 190 181 154 137 138 138 122 109 101 96 95 97 94 91 85 89 96 85 78 75 87 111 123 117 117 114 114 106 92 79 74 60 355 8 49 37 53 44 38 30 30 25
191 186 179 166 154 158 150 132 115 103 95 84 85 100 107 98 103 109 99 85 74 67 85 98 111 113 112 116 104 106 109 95 73 36 18 47 24 29 22 33 26 24 21
191 184 177 170 166 167 163 148 132 115 101 84 72 79 103 103 115 118 110 103 91 79 78 85 87 85 80 78 101 106 92 82 57 27 17 30 15 359 1 20 16 14 11
196 184 178 177 174 172 172 161 145 131 117 104 82 70 82 103 114 120 120 119 112 106 106 92 73 60 62 59 57 71 101 102 85 43 13 12 16 11 35 4 357 6 9